Date String (YYYY-MM-DD hh:mm:ss) UTC,Instrument flags,Ambient pressure (hPa),Sample flow (lpm),Bypass flow (lpm),Sample temperature (°C),Ambient temperature (°C),ASC tube jacket temperature (°C),LED temperature (°C),Box temperature (°C),Sample RH (%),Span deviation,Mass concentration (μg/m³),Mass concentration (μg/m³),Mass concentration (μg/m³)
DateTimeUTC,F1_M11,P_M11,Q1_M11,Q2_M11,T1_M11,T2_M11,T3_M11,T4_M11,T5_M11,U1_M11,ZSPAN_M11,X0_M11,X2_M11,X1_M11
2021-10-05 04:00:00,,0832.2,5.01,0.00,29.8,28.7,00.0,38.8,31.5,11.9,0002.3,0013.24,0004.29,0003.56
2021-10-05 04:01:00,,0832.2,4.99,0.00,29.8,28.8,00.0,38.8,31.6,11.8,0001.1,0013.19,0004.26,0003.56
2021-10-05 04:02:00,,0832.2,5.01,0.00,29.8,28.8,00.0,38.8,31.6,11.9,0000.0,0012.63,0004.23,0003.55
2021-10-05 04:03:00,,0832.2,4.99,0.00,29.8,28.8,00.0,38.8,31.6,12.0,0000.0,0012.15,0004.25,0003.55
2021-10-05 04:04:00,,0832.3,5.00,0.00,29.8,28.9,00.0,38.8,31.6,11.9,0000.0,0011.55,0004.26,0003.55
2021-10-05 04:05:00,,0832.3,5.00,0.00,29.9,28.9,00.0,38.8,31.7,11.7,0000.0,0011.39,0004.22,0003.54
2021-10-05 04:06:00,,0832.2,5.01,0.00,29.9,29.0,00.0,38.9,31.7,11.8,0000.9,0011.35,0004.22,0003.55
2021-10-05 04:07:00,,0832.3,4.99,0.00,29.9,29.0,00.0,38.9,31.7,11.7,0002.4,0011.03,0004.26,0003.56
2021-10-05 04:08:00,,0832.3,5.01,0.00,29.9,29.0,00.0,38.9,31.7,11.7,0000.9,0011.08,0004.26,0003.56
2021-10-05 04:09:00,,0832.3,5.00,0.00,29.9,29.0,00.0,38.9,31.8,11.6,0000.6,0011.30,0004.25,0003.55
2021-10-05 04:10:00,,0832.3,5.00,0.00,30.0,29.0,00.0,38.9,31.8,11.3,0000.0,0010.90,0004.26,0003.54
2021-10-05 04:11:00,,0832.2,4.99,0.00,30.0,29.0,00.0,39.0,31.8,11.3,0001.9,0009.39,0004.25,0003.54
2021-10-05 04:12:00,,0832.3,5.00,0.00,30.0,29.0,00.0,39.0,31.8,11.4,0002.7,0010.41,0004.26,0003.53
2021-10-05 04:13:00,,0832.2,5.01,0.00,30.0,29.0,00.0,39.0,31.8,11.6,0002.0,0010.63,0004.29,0003.53
2021-10-05 04:14:00,,0832.2,4.99,0.00,30.0,29.1,00.0,39.0,31.8,11.5,0002.0,0010.82,0004.26,0003.53
2021-10-05 04:15:00,,0832.1,5.00,0.00,30.1,29.1,00.0,39.0,31.9,11.3,0002.1,0011.43,0004.24,0003.52
2021-10-05 04:16:00,,0832.2,5.01,0.00,30.1,29.1,00.0,39.1,31.8,11.3,0002.1,0011.54,0004.24,0003.51
2021-10-05 04:17:00,,0832.2,5.00,0.00,30.1,29.1,00.0,39.1,31.9,11.3,0001.9,0011.64,0004.25,0003.50
2021-10-05 04:18:00,,0832.1,4.99,0.00,30.1,29.1,00.0,39.1,31.9,11.2,0000.2,0011.56,0004.23,0003.49
2021-10-05 04:19:00,,0832.2,5.00,0.00,30.0,27.7,00.0,39.1,31.5,11.3,0001.7,0010.91,0004.25,0003.48
2021-10-05 04:20:00,,0832.1,5.00,0.00,29.9,26.2,00.0,39.0,31.1,11.6,0001.0,0011.08,0004.24,0003.48
2021-10-05 04:21:00,,0832.1,5.01,0.00,29.8,26.2,00.0,39.0,31.1,11.6,0001.5,0011.08,0004.23,0003.48
2021-10-05 04:22:00,,0832.0,4.99,0.00,29.7,26.6,00.0,38.9,31.1,11.9,0000.8,0011.26,0004.25,0003.49
2021-10-05 04:23:00,,0832.1,5.01,0.00,29.6,27.0,00.0,38.9,31.2,11.7,0000.2,0011.05,0004.26,0003.49
2021-10-05 04:24:00,,0832.1,4.98,0.00,29.6,27.4,00.0,38.9,31.2,11.7,0000.0,0011.07,0004.24,0003.47
2021-10-05 04:25:00,,0832.1,5.01,0.00,29.6,27.6,00.0,38.8,31.2,11.6,0000.0,0011.58,0004.22,0003.46
2021-10-05 04:26:00,,0832.1,4.99,0.00,29.6,27.9,00.0,38.8,31.3,11.6,0000.0,0011.70,0004.27,0003.46
2021-10-05 04:27:00,,0832.1,5.00,0.00,29.6,28.1,00.0,38.8,31.3,11.6,0000.0,0011.78,0004.29,0003.46
2021-10-05 04:28:00,,0832.2,5.01,0.00,29.6,28.2,00.0,38.8,31.3,11.7,0000.0,0011.76,0004.29,0003.47
2021-10-05 04:29:00,,0832.1,5.00,0.00,29.6,28.3,00.0,38.8,31.4,11.5,0000.0,0012.37,0004.33,0003.47
2021-10-05 04:30:00,,0832.1,4.99,0.00,29.7,28.4,00.0,38.8,31.4,11.4,0000.0,0013.12,0004.35,0003.47
2021-10-05 04:31:00,,0832.1,4.99,0.00,29.7,28.5,00.0,38.8,31.4,11.5,0000.0,0013.83,0004.39,0003.46
2021-10-05 04:32:00,,0832.1,5.00,0.00,29.7,28.6,00.0,38.8,31.4,11.3,0000.0,0014.00,0004.43,0003.47
2021-10-05 04:33:00,,0832.0,5.01,0.00,29.7,28.6,00.0,38.8,31.4,11.4,0000.0,0013.85,0004.45,0003.47
2021-10-05 04:34:00,,0832.1,5.00,0.00,29.7,28.6,00.0,38.8,31.5,11.4,0000.8,0012.94,0004.45,0003.48
2021-10-05 04:35:00,,0832.0,5.01,0.00,29.7,28.6,00.0,38.8,31.5,11.3,0002.3,0012.54,0004.46,0003.49
2021-10-05 04:36:00,,0832.1,5.01,0.00,29.8,28.6,00.0,38.8,31.5,11.3,0001.6,0011.78,0004.46,0003.50
2021-10-05 04:37:00,,0832.1,4.99,0.00,29.8,28.7,00.0,38.8,31.5,11.4,0001.2,0011.77,0004.46,0003.51
2021-10-05 04:38:00,,0832.1,5.01,0.00,29.8,28.7,00.0,38.8,31.6,11.4,0001.8,0011.87,0004.44,0003.51
2021-10-05 04:39:00,,0832.1,5.00,0.00,29.8,28.8,00.0,38.8,31.6,11.3,0001.6,0012.19,0004.46,0003.50
2021-10-05 04:40:00,,0832.1,5.01,0.00,29.8,28.8,00.0,38.9,31.6,11.4,0002.1,0011.81,0004.43,0003.49
2021-10-05 04:41:00,,0832.1,5.01,0.00,29.8,28.8,00.0,38.9,31.6,11.5,0001.5,0011.00,0004.39,0003.50
2021-10-05 04:42:00,,0832.1,5.01,0.00,29.9,28.9,00.0,38.9,31.6,11.4,0002.4,0009.97,0004.35,0003.50
2021-10-05 04:43:00,,0832.1,5.01,0.00,29.9,28.9,00.0,38.9,31.6,11.2,0002.1,0009.74,0004.29,0003.50
2021-10-05 04:44:00,,0832.1,4.99,0.00,29.9,28.9,00.0,38.9,31.7,11.5,0001.3,0009.65,0004.26,0003.49
2021-10-05 04:45:00,,0832.0,5.00,0.00,29.9,28.9,00.0,38.9,31.7,11.5,0000.8,0009.95,0004.29,0003.48
2021-10-05 04:46:00,,0832.0,5.00,0.00,29.9,28.9,00.0,39.0,31.7,11.3,0000.7,0010.83,0004.30,0003.47
2021-10-05 04:47:00,,0832.0,5.00,0.00,29.9,28.9,00.0,39.0,31.7,11.3,0000.7,0010.68,0004.26,0003.46
2021-10-05 04:48:00,,0832.0,5.01,0.00,30.0,28.9,00.0,39.0,31.7,11.3,0000.7,0010.17,0004.23,0003.45
2021-10-05 04:49:00,,0832.0,4.99,0.00,30.0,28.9,00.0,39.0,31.7,11.4,0000.7,0010.37,0004.23,0003.45
2021-10-05 04:50:00,,0832.0,5.01,0.00,30.0,28.9,00.0,39.0,31.8,11.4,0000.6,0010.03,0004.21,0003.45
2021-10-05 04:51:00,,0832.0,5.01,0.00,30.0,28.9,00.0,39.0,31.8,11.6,0000.5,0010.03,0004.23,0003.45
2021-10-05 04:52:00,,0832.0,5.01,0.00,30.0,28.9,00.0,39.0,31.8,11.5,0000.4,0011.11,0004.29,0003.45
2021-10-05 04:53:00,,0832.0,4.99,0.00,30.0,28.9,00.0,39.0,31.7,11.1,0001.0,0011.45,0004.31,0003.46
2021-10-05 04:54:00,,0832.0,5.00,0.00,30.0,28.9,00.0,39.1,31.8,11.2,0001.5,0011.68,0004.35,0003.46
2021-10-05 04:55:00,,0831.9,5.00,0.00,30.0,29.0,00.0,39.1,31.7,11.2,0002.1,0011.93,0004.38,0003.46
2021-10-05 04:56:00,,0832.0,5.02,0.00,30.0,29.0,00.0,39.1,31.7,11.1,0002.8,0012.45,0004.36,0003.47
2021-10-05 04:57:00,,0832.0,4.99,0.00,30.1,29.0,00.0,39.1,31.8,11.2,0003.1,0011.84,0004.32,0003.47
2021-10-05 04:58:00,,0832.0,5.00,0.00,30.1,29.0,00.0,39.1,31.8,11.3,0003.2,0011.88,0004.37,0003.47
2021-10-05 04:59:00,,0831.9,5.02,0.00,30.1,29.0,00.0,39.1,31.8,11.4,0003.6,0011.84,0004.39,0003.48
